Weather History for Naples, FL

Change the Weather History Date:

Wednesday, November 28, 2012

  Actual Average Record
Temperature  
Mean Temperature 71 °F 70 °F  
Max Temperature 78 °F 79 °F 90 °F (1990)
Min Temperature 63 °F 60 °F 41 °F (1956)
Degree Days  
Heating Degree Days 0 1  
Month to date heating degree days 12 9  
Since 1 July heating degree days 13 10  
Cooling Degree Days 6 5  
Month to date cooling degree days 113 213  
Year to date cooling degree days 3954 3808  
Growing Degree Days 20 (Base 50)    
Moisture  
Dew Point 63 °F    
Average Humidity 78    
Maximum Humidity 100    
Minimum Humidity 56    
Precipitation  
Precipitation 0.00 in 0.05 in 2.62 in (1947)
Month to date precipitation 0.12 1.91  
Year to date precipitation 36.15 50.31  
Snow  
Snow 0.00 in - - ()
Month to date snowfall 0.0  
Since 1 July snowfall 0.0  
Since 1 September snowfall 0.0  
Snow Depth 0.00 in    
Sea Level Pressure  
Sea Level Pressure 30.16 in    
Wind  
Wind Speed 6 mph (NNE)    
Max Wind Speed 14 mph    
Max Gust Speed 20 mph    
Visibility 9 miles    
Events      
T = Trace of Precipitation, MM = Missing Value Source: NWS Daily Summary

Daily Weather History Graph

Daily Weather History Graph

Search for Another Location

Airport:

Trip Planner

Search our weather history database for the weather conditions in past years. The results will help you decide how hot, cold, wet, or windy it might be!

Date:

Astronomy

Nov. 28, 2012 Rise Set
Actual Time 6:55 AM EST 5:34 PM EST
Civil Twilight 6:30 AM EST 5:59 PM EST
Nautical Twilight 6:02 AM EST 6:28 PM EST
Astronomical Twilight 5:34 AM EST 6:56 PM EST
Moon 5:49 PM EST (11/28) 6:52 AM EST (11/28)
Length of Visible Light 11h 29m
Length of Day
10h 39m
Full, 100% of the Moon is Illuminated
Nov 28
Full
Dec 6
Last Quarter
Dec 13
New
Dec 20
First Quarter
Dec 28
Full

Hourly Weather History & Observations

Time (EST) Temp. Dew Point Humidity Pressure Visibility Wind Dir Wind Speed Gust Speed Precip Events Conditions
12:53 AM 66.0 °F 64.9 °F 96% 30.13 in 9.0 mi Calm Calm - N/A   Clear
1:53 AM 66.0 °F 64.9 °F 96% 30.12 in 9.0 mi Calm Calm - N/A   Scattered Clouds
2:53 AM 66.0 °F 64.9 °F 96% 30.12 in 9.0 mi Calm Calm - N/A   Overcast
3:53 AM 66.0 °F 64.9 °F 96% 30.11 in 9.0 mi NNW 3.5 mph - N/A   Scattered Clouds
4:53 AM 66.0 °F 66.0 °F 100% 30.12 in 6.0 mi Calm Calm - N/A   Scattered Clouds
5:53 AM 64.9 °F 64.9 °F 100% 30.13 in 6.0 mi Calm Calm - N/A   Partly Cloudy
6:53 AM 66.9 °F 66.0 °F 97% 30.14 in 9.0 mi North 3.5 mph - N/A   Partly Cloudy
7:53 AM 66.9 °F 66.0 °F 97% 30.16 in 8.0 mi NNW 3.5 mph - N/A   Clear
8:53 AM 69.1 °F 66.0 °F 90% 30.18 in 10.0 mi Calm Calm - N/A   Clear
9:53 AM 73.0 °F 64.0 °F 73% 30.20 in 10.0 mi NNW 3.5 mph - N/A   Partly Cloudy
10:53 AM 73.9 °F 63.0 °F 68% 30.20 in 10.0 mi Variable 6.9 mph - N/A   Partly Cloudy
11:53 AM 75.9 °F 61.0 °F 60% 30.18 in 10.0 mi North 10.4 mph - N/A   Partly Cloudy
12:53 PM 75.0 °F 64.0 °F 69% 30.16 in 10.0 mi NNE 11.5 mph - N/A   Clear
1:53 PM 75.9 °F 63.0 °F 64% 30.14 in 10.0 mi NE 9.2 mph - N/A   Partly Cloudy
2:53 PM 77.0 °F 62.1 °F 60% 30.13 in 10.0 mi NE 11.5 mph - N/A   Partly Cloudy
3:53 PM 77.0 °F 61.0 °F 58% 30.14 in 10.0 mi NE 5.8 mph - N/A   Scattered Clouds
4:53 PM 75.9 °F 62.1 °F 62% 30.14 in 10.0 mi NNE 9.2 mph - N/A   Mostly Cloudy
5:53 PM 73.0 °F 62.1 °F 68% 30.15 in 10.0 mi NNE 5.8 mph - N/A   Partly Cloudy
6:53 PM 72.0 °F 62.1 °F 71% 30.17 in 10.0 mi NNE 5.8 mph - N/A   Scattered Clouds
7:53 PM 69.1 °F 61.0 °F 75% 30.19 in 10.0 mi NNE 9.2 mph - N/A   Clear
8:53 PM 66.9 °F 61.0 °F 81% 30.20 in 10.0 mi NNE 6.9 mph - N/A   Clear
9:53 PM 66.0 °F 61.0 °F 84% 30.21 in 10.0 mi NNE 11.5 mph - N/A   Clear
10:53 PM 64.0 °F 60.1 °F 87% 30.20 in 10.0 mi NE 12.7 mph 18.4 mph N/A   Clear
11:53 PM 63.0 °F 60.1 °F 90% 30.19 in 10.0 mi NNE 10.4 mph - N/A   Clear